Amateur Radio Satellites - All Passes

Search period start: 18 June 2013 21:18
Search period end: 19 June 2013 21:18
Location: Slave Lake, 55.2830°N, 114.7830°W

Satellite Date Start Highest point End Downlink Frequencies (MHz)
Time Altitude Azimuth
RS-15 18 Jun 21:25:46 21:36:54 72° 233° (SW) 21:47:40 29.354 - 29.394 USB, Beacon 29.352 USB
Hamsat 18 Jun 21:25:57 21:27:37 12° 277° (W) 21:29:17 145.90 MHz
Oscar 11 18 Jun 21:26:01 21:29:51 31° 62° (ENE) 21:33:43 145.825 FM, Beacon 2401.500 USB
KITSAT 1 18 Jun 21:34:00 21:41:49 49° 337° (NNW) 21:49:42 435.175 FM
JAS-1B 18 Jun 21:38:26 21:43:37 24° 269° (W) 21:48:22 435.800 - 435.900 CW/SSB
STRAND 1 18 Jun 21:41:02 21:45:39 34° 301° (WNW) 21:50:15 ?
OPAL 18 Jun 21:43:06 21:47:11 26° 53° (NE) 21:51:16 ?
MaSat-1 18 Jun 21:48:53 21:53:50 86° 307° (NW) 21:57:37 437.345 MHz
HO-68 18 Jun 22:26:05 22:33:09 61° 257° (WSW) 22:40:16 435.675 MHz FM
ISS 18 Jun 22:31:36 22:34:11 21° 206° (SSW) 22:36:46 145.800 FM
JAS-2 18 Jun 22:53:31 23:00:31 51° 261° (W) 23:06:47 435.800 - 435.900 CW/SSB, 435.910 FM
Oscar 11 18 Jun 23:01:49 23:05:59 44° 262° (W) 23:10:13 145.825 FM, Beacon 2401.500 USB
OPAL 18 Jun 23:20:43 23:25:44 71° 253° (WSW) 23:30:44 ?
KITSAT 1 18 Jun 23:31:29 23:39:03 40° 5° (N) 23:46:37 435.175 FM
MaSat-1 18 Jun 23:32:49 23:36:01 20° 324° (NW) 23:38:42 437.345 MHz
RS-15 18 Jun 23:39:06 23:47:12 25° 259° (W) 23:55:13 29.354 - 29.394 USB, Beacon 29.352 USB
Oscar 10/S400 18 Jun 23:42:42 06:01:45 39° 113° (ESE) 08:58:07 145.825 - 145.975 CW/USB, Beacon 145.810 USB
Saudisat 1A 18 Jun 23:50:41 23:55:02 44° 127° (SE) 23:59:26 436.775 MHz
HO-68 19 Jun 00:18:30 00:22:26 15° 279° (W) 00:26:24 435.675 MHz FM
JAS-2 19 Jun 00:44:32 00:46:59 12° 281° (WNW) 00:49:22 435.800 - 435.900 CW/SSB, 435.910 FM
OPAL 19 Jun 01:03:07 01:05:34 14° 273° (W) 01:08:00 ?
Sapphire 19 Jun 01:07:35 01:10:44 16° 106° (ESE) 01:13:54 437.095 MHz 1200 baud AX-25 AFSK
KITSAT 1 19 Jun 01:27:57 01:36:01 60° 33° (NNE) 01:44:04 435.175 FM
Saudisat 1A 19 Jun 01:30:17 01:34:46 50° 328° (NNW) 01:39:17 436.775 MHz
Oscar 16 19 Jun 01:55:00 01:57:05 12° 82° (E) 01:59:09 437.025 USB, Beacon 2401.1428
Uribyol 2 19 Jun 02:07:45 02:09:43 12° 81° (E) 02:11:40 436.500 FM
PCSat 19 Jun 02:13:41 02:18:48 44° 120° (ESE) 02:23:57 145.825 MHz
SO-50 19 Jun 02:28:47 02:32:55 30° 122° (ESE) 02:36:59 436.795 FM
Oscar 19 19 Jun 02:47:39 02:52:01 27° 92° (E) 02:56:20 437.125 CW, 437.150 USB
Sapphire 19 Jun 02:47:53 02:53:16 69° 126° (SE) 02:58:41 437.095 MHz 1200 baud AX-25 AFSK
Saudisat 1A 19 Jun 03:11:26 03:15:22 27° 352° (N) 03:19:19 436.775 MHz
ITAMSAT 1 19 Jun 03:11:37 03:16:24 34° 95° (E) 03:21:08 435.822 SSB
AO-27 19 Jun 03:12:37 03:17:27 36° 95° (E) 03:22:14 436.795 MHz FM
KITSAT 1 19 Jun 03:23:39 03:31:35 59° 238° (WSW) 03:39:29 435.175 FM
Oscar 16 19 Jun 03:32:23 03:37:31 64° 103° (ESE) 03:42:37 437.025 USB, Beacon 2401.1428
Uribyol 2 19 Jun 03:45:07 03:50:20 62° 102° (ESE) 03:55:30 436.500 FM
AO-Echo 19 Jun 03:52:39 03:57:16 33° 95° (E) 04:01:57 ?
PCSat 19 Jun 03:56:55 04:02:14 53° 322° (NW) 04:07:35 145.825 MHz
TMSAT-1 19 Jun 04:07:12 04:09:58 14° 83° (E) 04:12:42 436.925 FM
SO-50 19 Jun 04:08:34 04:13:17 68° 322° (NW) 04:17:57 436.795 FM
Uosat F 19 Jun 04:12:28 04:16:16 21° 89° (E) 04:20:03 435.120 FM
UOSAT-12 19 Jun 04:14:47 04:15:45 11° 109° (ESE) 04:16:42 437.025 FM, 437.400 FM
Oscar 19 19 Jun 04:26:42 04:31:46 60° 292° (WNW) 04:36:48 437.125 CW, 437.150 USB
AO-7 19 Jun 04:26:58 04:29:07 11° 74° (ENE) 04:31:15 29.400 - 29.500 MHz
Sapphire 19 Jun 04:32:00 04:37:05 40° 329° (NNW) 04:42:13 437.095 MHz 1200 baud AX-25 AFSK
MaSat-1 19 Jun 04:42:52 04:45:30 32° 43° (NE) 04:47:51 437.345 MHz
Gurwin Techsat 1B 19 Jun 04:46:10 04:51:05 36° 95° (E) 04:55:57 435.225 FM
ITAMSAT 1 19 Jun 04:51:04 04:56:07 50° 295° (WNW) 05:01:09 435.822 SSB
AO-27 19 Jun 04:52:07 04:57:10 48° 296° (WNW) 05:02:10 436.795 MHz FM
Saudisat 1A 19 Jun 04:52:09 04:56:15 30° 16° (NNE) 05:00:17 436.775 MHz
Oscar 16 19 Jun 05:12:16 05:16:35 28° 303° (WNW) 05:20:54 437.025 USB, Beacon 2401.1428
KITSAT 1 19 Jun 05:20:38 05:25:21 17° 261° (W) 05:30:03 435.175 FM
Uribyol 2 19 Jun 05:25:04 05:29:34 30° 303° (WNW) 05:34:02 436.500 FM
AO-Echo 19 Jun 05:31:22 05:36:16 50° 294° (WNW) 05:41:17 ?
PCSat 19 Jun 05:42:15 05:46:48 26° 347° (NNW) 05:51:22 145.825 MHz
TMSAT-1 19 Jun 05:45:35 05:50:55 70° 104° (ESE) 05:56:13 436.925 FM
STRAND 1 19 Jun 05:46:42 05:51:12 32° 58° (ENE) 05:55:44 ?
SO-50 19 Jun 05:50:29 05:54:38 30° 345° (NNW) 05:58:42 436.795 FM
UOSAT-12 19 Jun 05:50:32 05:54:57 53° 129° (SE) 05:59:25 437.025 FM, 437.400 FM
Uosat F 19 Jun 05:50:36 05:55:41 78° 289° (WNW) 06:00:44 435.120 FM
Oscar 19 19 Jun 06:07:21 06:10:13 15° 314° (NW) 06:13:06 437.125 CW, 437.150 USB
AO-7 19 Jun 06:16:24 06:24:24 45° 99° (E) 06:32:19 29.400 - 29.500 MHz
Sapphire 19 Jun 06:17:31 06:21:55 24° 355° (N) 06:26:19 437.095 MHz 1200 baud AX-25 AFSK
MaSat-1 19 Jun 06:25:11 06:27:00 17° 248° (WSW) 06:28:44 437.345 MHz
Gurwin Techsat 1B 19 Jun 06:26:08 06:31:15 48° 296° (WNW) 06:36:20 435.225 FM
Saudisat 1A 19 Jun 06:32:01 06:36:38 71° 38° (NE) 06:41:09 436.775 MHz
ITAMSAT 1 19 Jun 06:32:06 06:34:33 14° 317° (NW) 06:37:01 435.822 SSB
AO-27 19 Jun 06:33:14 06:35:36 13° 317° (NW) 06:37:57 436.795 MHz FM
AO-Echo 19 Jun 07:11:49 07:14:04 13° 315° (NW) 07:16:20 ?
JAS-1B 19 Jun 07:23:32 07:25:12 11° 81° (E) 07:26:54 435.800 - 435.900 CW/SSB
STRAND 1 19 Jun 07:25:10 07:30:12 56° 259° (W) 07:35:19 ?
TMSAT-1 19 Jun 07:26:04 07:30:29 27° 304° (NW) 07:34:53 436.925 FM
Hamsat 19 Jun 07:26:54 07:29:19 14° 85° (E) 07:31:43 145.90 MHz
PCSat 19 Jun 07:27:20 07:31:52 26° 12° (NNE) 07:36:24 145.825 MHz
Uosat F 19 Jun 07:30:23 07:33:48 19° 310° (NW) 07:37:13 435.120 FM
UOSAT-12 19 Jun 07:30:54 07:35:16 44° 331° (NNW) 07:39:42 437.025 FM, 437.400 FM
SO-50 19 Jun 07:32:26 07:36:26 27° 9° (N) 07:40:22 436.795 FM
Sapphire 19 Jun 08:02:11 08:06:57 30° 20° (NNE) 08:11:42 437.095 MHz 1200 baud AX-25 AFSK
Gurwin Techsat 1B 19 Jun 08:07:42 08:10:06 13° 317° (NW) 08:12:30 435.225 FM
AO-7 19 Jun 08:09:20 08:17:34 62° 301° (WNW) 08:25:44 29.400 - 29.500 MHz
Saudisat 1A 19 Jun 08:12:09 08:16:01 27° 240° (WSW) 08:19:48 436.775 MHz
SO-67 19 Jun 08:23:23 08:25:29 15° 88° (E) 08:27:34 435.3500 MHz FM
Hamsat 19 Jun 09:01:39 09:06:06 88° 107° (ESE) 09:10:29 145.90 MHz
STRAND 1 19 Jun 09:09:37 09:10:37 11° 280° (W) 09:11:36 ?
PCSat 19 Jun 09:11:09 09:16:29 51° 37° (NE) 09:21:47 145.825 MHz
JAS-1B 19 Jun 09:11:34 09:17:14 58° 102° (ESE) 09:23:26 435.800 - 435.900 CW/SSB
UOSAT-12 19 Jun 09:12:33 09:16:26 26° 355° (N) 09:20:20 437.025 FM, 437.400 FM
SO-50 19 Jun 09:13:22 09:17:55 54° 33° (NNE) 09:22:22 436.795 FM
Sapphire 19 Jun 09:45:47 09:51:15 72° 44° (NE) 09:56:41 437.095 MHz 1200 baud AX-25 AFSK
HO-68 19 Jun 09:46:19 09:51:23 20° 85° (E) 09:56:24 435.675 MHz FM
SO-67 19 Jun 09:55:46 09:59:22 66° 287° (WNW) 10:02:55 435.3500 MHz FM
JAS-2 19 Jun 09:56:25 09:59:45 16° 82° (E) 10:02:57 435.800 - 435.900 CW/SSB, 435.910 FM
AO-7 19 Jun 10:02:34 10:08:58 25° 326° (NW) 10:15:21 29.400 - 29.500 MHz
Hamsat 19 Jun 10:38:40 10:41:37 18° 305° (NW) 10:44:33 145.90 MHz
Oscar 11 19 Jun 10:42:45 10:46:12 22° 91° (E) 10:49:38 145.825 FM, Beacon 2401.500 USB
UOSAT-12 19 Jun 10:53:35 10:57:45 32° 19° (NNE) 11:01:55 437.025 FM, 437.400 FM
SO-50 19 Jun 10:54:13 10:58:28 39° 235° (SW) 11:02:39 436.795 FM
PCSat 19 Jun 10:54:45 10:59:58 47° 239° (WSW) 11:05:08 145.825 MHz
JAS-1B 19 Jun 11:02:47 11:07:49 33° 303° (WNW) 11:13:09 435.800 - 435.900 CW/SSB
OPAL 19 Jun 11:24:17 11:27:23 16° 89° (E) 11:30:29 ?
Sapphire 19 Jun 11:29:39 11:34:20 30° 246° (WSW) 11:39:00 437.095 MHz 1200 baud AX-25 AFSK
SO-67 19 Jun 11:31:34 11:32:07 10° 307° (NW) 11:32:39 435.3500 MHz FM
HO-68 19 Jun 11:33:06 11:40:20 75° 107° (ESE) 11:47:32 435.675 MHz FM
JAS-2 19 Jun 11:40:19 11:46:00 82° 106° (ESE) 11:51:14 435.800 - 435.900 CW/SSB, 435.910 FM
Oscar 16 19 Jun 11:44:00 11:44:48 10° 39° (NE) 11:45:37 437.025 USB, Beacon 2401.1428
AO-7 19 Jun 11:54:47 11:59:03 15° 353° (N) 12:03:19 29.400 - 29.500 MHz
Uribyol 2 19 Jun 11:57:13 11:58:19 11° 39° (NE) 11:59:25 436.500 FM
RS-15 19 Jun 11:58:08 12:08:20 36° 109° (ESE) 12:18:08 29.354 - 29.394 USB, Beacon 29.352 USB
Oscar 11 19 Jun 12:18:28 12:22:49 60° 291° (WNW) 12:27:07 145.825 FM, Beacon 2401.500 USB
UOSAT-12 19 Jun 12:33:51 12:38:29 85° 42° (NE) 12:43:07 437.025 FM, 437.400 FM
Oscar 19 19 Jun 12:34:43 12:38:13 19° 50° (NE) 12:41:42 437.125 CW, 437.150 USB
ITAMSAT 1 19 Jun 12:59:11 13:03:15 23° 53° (NE) 13:07:19 435.822 SSB
AO-27 19 Jun 13:00:15 13:04:22 24° 53° (NE) 13:08:30 436.795 MHz FM
OPAL 19 Jun 13:02:04 13:07:04 85° 109° (ESE) 13:12:03 ?
Oscar 16 19 Jun 13:18:09 13:22:54 38° 61° (ENE) 13:27:38 437.025 USB, Beacon 2401.1428
HO-68 19 Jun 13:21:15 13:27:37 36° 309° (NW) 13:33:58 435.675 MHz FM
JAS-2 19 Jun 13:26:06 13:30:30 24° 310° (NW) 13:34:39 435.800 - 435.900 CW/SSB, 435.910 FM
Uribyol 2 19 Jun 13:31:43 13:36:30 38° 61° (ENE) 13:41:19 436.500 FM
AO-Echo 19 Jun 13:36:34 13:39:47 18° 51° (NE) 13:43:04 ?
AO-7 19 Jun 13:43:40 13:48:48 18° 20° (NNE) 13:53:56 29.400 - 29.500 MHz
Oscar 11 19 Jun 13:56:20 13:58:13 13° 311° (NW) 14:00:06 145.825 FM, Beacon 2401.500 USB
Uosat F 19 Jun 13:57:01 13:59:45 15° 46° (NE) 14:02:29 435.120 FM
TMSAT-1 19 Jun 13:58:56 14:00:48 12° 41° (NE) 14:02:40 436.925 FM
RS-15 19 Jun 14:07:39 14:19:32 87° 135° (SE) 14:30:53 29.354 - 29.394 USB, Beacon 29.352 USB
Oscar 19 19 Jun 14:11:42 14:16:52 77° 71° (ENE) 14:22:02 437.125 CW, 437.150 USB
UOSAT-12 19 Jun 14:14:38 14:18:12 22° 242° (WSW) 14:21:46 437.025 FM, 437.400 FM
Gurwin Techsat 1B 19 Jun 14:36:19 14:40:33 25° 54° (NE) 14:44:47 435.225 FM
ITAMSAT 1 19 Jun 14:37:00 14:42:15 83° 254° (WSW) 14:47:32 435.822 SSB
AO-27 19 Jun 14:38:11 14:43:25 80° 254° (WSW) 14:48:42 436.795 MHz FM
OPAL 19 Jun 14:41:41 14:45:28 22° 310° (NW) 14:49:15 ?
Oscar 16 19 Jun 14:57:16 15:02:14 46° 261° (W) 15:07:13 437.025 USB, Beacon 2401.1428
HO-68 19 Jun 15:09:51 15:13:25 15° 334° (NNW) 15:17:00 435.675 MHz FM
Uribyol 2 19 Jun 15:10:56 15:15:57 47° 261° (W) 15:21:02 436.500 FM
AO-Echo 19 Jun 15:13:10 15:17:55 83° 72° (ENE) 15:22:50 ?
AO-7 19 Jun 15:32:01 15:39:26 38° 46° (NE) 15:46:54 29.400 - 29.500 MHz
Uosat F 19 Jun 15:32:43 15:37:38 58° 67° (ENE) 15:42:37 435.120 FM
TMSAT-1 19 Jun 15:34:33 15:39:31 42° 63° (ENE) 15:44:31 436.925 FM
Oscar 19 19 Jun 15:52:55 15:56:50 21° 271° (W) 16:00:45 437.125 CW, 437.150 USB
Gurwin Techsat 1B 19 Jun 16:14:43 16:20:03 79° 255° (WSW) 16:25:25 435.225 FM
ITAMSAT 1 19 Jun 16:19:18 16:22:36 17° 274° (W) 16:25:56 435.822 SSB
AO-27 19 Jun 16:20:39 16:23:50 16° 275° (W) 16:27:02 436.795 MHz FM
RS-15 19 Jun 16:21:36 16:33:04 57° 344° (NNW) 16:44:02 29.354 - 29.394 USB, Beacon 29.352 USB
AO-Echo 19 Jun 16:54:11 16:57:25 18° 273° (W) 17:00:43 ?
ISS 19 Jun 16:55:35 16:56:36 11° 143° (SE) 16:57:37 145.800 FM
Uosat F 19 Jun 17:12:33 17:16:49 28° 267° (W) 17:21:08 435.120 FM
TMSAT-1 19 Jun 17:14:31 17:19:31 41° 263° (W) 17:24:34 436.925 FM
AO-7 19 Jun 17:23:18 17:31:40 81° 250° (WSW) 17:40:07 29.400 - 29.500 MHz
Gurwin Techsat 1B 19 Jun 17:57:42 18:00:56 16° 276° (W) 18:04:12 435.225 FM
KITSAT 1 19 Jun 17:59:50 18:07:01 37° 113° (ESE) 18:14:14 435.175 FM
JAS-1B 19 Jun 18:16:06 18:21:03 25° 52° (NE) 18:25:40 435.800 - 435.900 CW/SSB
Hamsat 19 Jun 18:27:35 18:31:14 26° 60° (ENE) 18:34:55 145.90 MHz
ISS 19 Jun 18:29:36 18:32:33 31° 162° (SSE) 18:35:30 145.800 FM
RS-15 19 Jun 18:36:22 18:47:38 58° 17° (NNE) 18:58:26 29.354 - 29.394 USB, Beacon 29.352 USB
HO-68 19 Jun 18:39:28 18:43:04 15° 27° (NNE) 18:46:41 435.675 MHz FM
SO-67 19 Jun 19:06:13 19:08:45 18° 60° (ENE) 19:11:18 435.3500 MHz FM
AO-7 19 Jun 19:19:17 19:25:47 25° 273° (W) 19:32:21 29.400 - 29.500 MHz
STRAND 1 19 Jun 19:28:32 19:33:05 30° 94° (E) 19:37:37 ?
KITSAT 1 19 Jun 19:53:44 20:01:51 81° 317° (NW) 20:10:03 435.175 FM
Hamsat 19 Jun 20:02:48 20:07:05 53° 260° (W) 20:11:25 145.90 MHz
JAS-1B 19 Jun 20:04:44 20:11:20 83° 253° (WSW) 20:17:10 435.800 - 435.900 CW/SSB
ISS 19 Jun 20:05:43 20:08:52 44° 182° (S) 20:12:02 145.800 FM
JAS-2 19 Jun 20:15:37 20:20:58 25° 51° (NE) 20:25:54 435.800 - 435.900 CW/SSB, 435.910 FM
HO-68 19 Jun 20:22:33 20:28:54 36° 51° (NE) 20:35:16 435.675 MHz FM
SO-67 19 Jun 20:38:22 20:41:53 56° 259° (W) 20:45:27 435.3500 MHz FM
RS-15 19 Jun 20:49:40 21:00:57 83° 227° (SW) 21:11:51 29.354 - 29.394 USB, Beacon 29.352 USB
MaSat-1 19 Jun 21:01:36 21:06:26 53° 122° (ESE) 21:10:11 437.345 MHz
STRAND 1 19 Jun 21:07:33 21:12:36 55° 294° (WNW) 21:17:38 ?
OPAL 19 Jun 21:09:31 21:12:36 17° 45° (NE) 21:15:39 ?

Developed and maintained by Chris Peat, Heavens-Above GmbH. Please read the updated FAQ before sending e-mail. Imprint. DLR
